Date,TemperatureHighF,TemperatureAvgF,TemperatureLowF,DewpointHighF,DewpointAvgF,DewpointLowF,HumidityHigh,HumidityAvg,HumidityLow,PressureMaxIn,PressureMinIn,WindSpeedMaxMPH,WindSpeedAvgMPH,GustSpeedMaxMPH,PrecipitationSumIn
2013-1-1,42.1,37.5,28.9,29.7,25.0,14.8,67,60,51,29.92,29.74,14,6,14,0.00
2013-1-2,43.9,33.4,25.0,23.6,17.2,12.7,62,51,41,30.09,29.91,14,5,14,0.00
2013-1-3,37.9,30.6,25.3,19.7,16.7,14.8,68,57,42,30.11,29.97,12,4,12,0.00
2013-1-4,40.5,33.3,29.8,22.7,19.6,17.4,64,57,44,29.99,29.86,21,6,21,0.00
2013-1-5,48.0,35.7,30.0,24.8,19.8,16.2,66,53,37,30.19,29.92,16,4,16,0.00
2013-1-6,49.1,39.8,33.1,33.7,27.4,22.5,81,62,46,30.13,29.86,12,4,12,0.00
2013-1-7,46.9,39.2,28.4,29.8,24.3,20.0,76,56,39,30.31,29.95,17,3,17,0.00
2013-1-8,49.1,35.0,24.8,32.5,25.4,19.1,82,69,49,30.33,30.24,13,2,13,0.00
2013-1-9,47.1,38.3,28.2,37.3,31.0,23.7,85,75,67,30.30,30.03,11,2,11,0.00
2013-1-10,49.1,41.6,35.6,32.1,25.5,22.6,72,54,37,30.45,30.14,16,4,16,0.50
2013-1-11,45.5,40.4,34.2,42.8,32.8,23.0,91,75,62,30.44,29.98,8,2,8,0.53
2013-1-12,49.5,45.8,42.3,45.9,43.0,39.8,92,90,87,30.06,29.97,6,1,6,0.03
2013-1-13,48.9,46.5,44.2,45.9,44.1,42.1,92,91,89,30.05,29.90,5,1,5,0.00
2013-1-14,57.0,50.0,40.3,53.6,43.4,29.6,93,80,48,30.19,29.79,13,3,13,0.08
2013-1-15,40.3,38.5,36.5,36.4,30.5,27.1,87,73,62,30.25,30.10,11,3,11,0.11
2013-1-16,36.5,34.5,32.7,34.1,32.2,30.4,93,91,81,30.11,29.70,8,2,8,0.80
2013-1-17,45.0,38.9,35.6,34.3,30.8,25.6,92,73,56,29.99,29.81,14,4,14,0.03
2013-1-18,36.3,30.4,26.6,26.0,13.9,6.6,67,51,34,30.40,29.89,18,5,18,0.00
2013-1-19,51.4,38.8,26.2,29.5,24.2,12.2,73,56,41,30.32,30.32,18,6,18,0.00
2013-1-20,55.8,41.6,30.6,32.6,23.1,11.7,80,51,24,30.32,29.92,28,8,28,0.00
2013-1-21,31.3,29.3,26.4,17.0,13.3,8.4,62,51,44,30.00,29.75,12,4,12,0.00
2013-1-22,26.6,20.4,13.8,10.4,0.7,-6.0,52,42,31,30.13,29.74,23,9,23,0.00
2013-1-23,22.3,15.2,10.8,1.9,-2.5,-6.4,59,45,35,30.17,30.07,17,5,17,0.00
2013-1-24,25.2,17.4,10.4,4.7,0.5,-3.6,71,49,29,30.33,30.03,22,6,22,0.00
2013-1-25,24.8,17.7,12.0,13.8,4.2,-3.6,78,56,41,30.34,29.97,12,3,12,0.00
2013-1-26,28.0,19.8,11.7,12.4,7.9,5.2,81,61,41,30.29,29.95,17,4,17,0.00
2013-1-27,35.6,24.9,16.0,14.0,10.2,6.7,68,55,37,30.44,30.28,13,3,13,0.00
2013-1-28,33.1,29.2,22.1,30.5,23.3,12.3,90,79,65,30.40,29.89,13,2,13,0.03
2013-1-29,51.1,40.1,32.5,43.1,36.7,29.9,91,88,72,30.03,29.90,8,2,8,0.03
2013-1-30,65.7,51.7,40.5,59.8,48.6,38.3,93,90,79,29.97,29.21,22,3,22,0.00
2013-1-31,61.0,47.3,29.1,58.0,34.1,10.2,90,62,36,29.69,28.90,30,13,30,0.78
2013-2-1,34.5,28.1,22.8,17.4,12.3,5.3,73,52,30,30.13,29.68,22,8,22,0.00
2013-2-2,32.0,24.7,18.5,19.2,9.6,5.5,79,53,35,30.21,29.95,14,5,14,0.00
2013-2-3,33.8,26.8,23.9,22.5,19.1,16.2,84,73,58,29.95,29.68,8,2,8,0.00
2013-2-4,31.6,26.4,21.7,19.4,11.9,8.5,76,55,39,29.88,29.70,17,6,17,0.00
2013-2-5,31.3,29.2,26.6,26.5,23.7,15.3,86,80,62,29.87,29.78,7,1,7,0.00
2013-2-6,38.8,32.2,26.6,27.8,21.8,10.8,89,67,47,30.26,29.81,14,4,14,0.03
2013-2-7,33.8,28.7,22.1,21.7,13.5,8.7,67,53,42,30.42,30.21,8,2,8,0.00
2013-2-8,34.7,32.1,28.0,30.8,28.1,21.6,92,85,66,30.21,29.53,15,6,15,0.06
2013-2-9,34.7,28.3,20.8,26.8,19.7,9.7,92,71,48,30.26,29.65,22,8,22,0.08
2013-2-10,39.6,27.6,14.7,22.3,15.1,8.1,77,61,39,30.40,30.22,12,2,12,0.22
2013-2-11,41.9,35.8,29.8,39.7,32.3,22.1,93,87,73,30.23,29.54,5,0,5,0.39
2013-2-12,46.9,40.4,34.2,37.2,29.1,24.5,92,65,47,29.86,29.61,20,6,20,0.00
2013-2-13,39.9,35.0,27.1,32.2,28.1,22.3,88,76,66,29.85,29.56,5,1,5,0.03
2013-2-14,49.5,39.2,31.8,34.8,30.2,26.9,90,72,45,29.89,29.59,9,2,9,0.00
2013-2-15,57.7,42.8,30.4,37.7,31.9,26.5,88,67,42,29.91,29.79,14,3,14,0.00
2013-2-16,43.0,37.8,31.8,34.4,27.9,15.3,87,68,50,29.86,29.64,15,5,15,0.06
2013-2-17,34.3,27.8,18.9,15.7,6.7,0.6,51,41,29,29.93,29.56,29,12,29,0.00
2013-2-18,36.5,26.3,17.2,14.3,7.2,1.5,53,44,31,30.16,29.93,18,6,18,0.00
2013-2-19,48.0,36.8,24.4,41.0,28.7,14.2,90,73,50,30.10,29.56,16,4,16,0.22
2013-2-20,42.1,33.9,25.2,38.8,20.6,9.5,88,60,40,29.89,29.59,22,10,22,0.00
2013-2-21,36.7,29.0,24.3,16.5,13.2,9.8,62,52,41,30.18,29.88,23,7,23,0.00
2013-2-22,38.7,31.5,23.5,31.1,21.6,13.4,80,67,54,30.31,30.15,13,3,13,0.00
2013-2-23,43.0,39.0,36.3,40.5,36.4,30.7,92,91,80,30.17,29.69,10,2,10,0.53
2013-2-24,49.6,39.0,32.9,40.3,31.4,21.8,93,75,53,29.87,29.63,19,6,19,0.03
2013-2-25,45.5,37.5,28.6,30.1,26.3,21.5,80,64,49,30.12,29.87,12,3,12,0.00
2013-2-26,45.5,37.6,29.1,34.3,29.9,24.9,91,74,59,30.18,29.75,16,5,16,0.11
2013-2-27,42.8,39.5,36.7,39.9,37.2,34.3,92,91,90,29.76,29.45,16,5,16,0.69
2013-2-28,52.3,42.9,37.2,41.8,35.0,28.7,92,75,53,29.51,29.42,10,3,10,0.00
2013-3-1,47.7,39.5,33.3,31.3,28.6,25.6,82,66,48,29.67,29.49,15,5,15,0.00
2013-3-2,42.3,36.3,31.1,26.6,24.4,22.1,77,62,51,29.67,29.58,14,6,14,0.00
2013-3-3,41.2,33.5,28.9,22.8,19.6,16.2,70,57,44,29.67,29.56,18,7,18,0.00
2013-3-4,44.1,34.7,27.3,22.6,19.2,15.1,67,54,40,29.81,29.66,21,8,21,0.00
2013-3-5,51.3,39.5,30.4,29.0,24.7,19.9,68,56,40,29.92,29.81,16,4,16,0.00
2013-3-6,43.3,40.1,37.2,35.5,31.2,27.2,80,70,60,29.86,29.71,28,10,28,0.00
2013-3-7,41.7,37.5,33.4,34.5,30.0,26.2,89,75,62,29.98,29.80,18,7,18,0.08
2013-3-8,39.2,34.9,31.6,34.8,31.2,28.5,90,86,73,30.09,29.90,16,3,16,0.25
2013-3-9,57.0,42.2,31.6,29.2,25.0,17.6,76,54,22,30.22,30.08,13,4,13,0.03
2013-3-10,48.6,38.9,29.3,35.9,31.0,24.7,85,74,59,30.29,30.20,10,3,10,0.00
2013-3-11,56.5,45.9,36.0,46.1,40.2,31.6,88,81,60,30.22,29.98,12,3,12,0.00
2013-3-12,57.7,52.1,44.1,55.1,48.0,37.3,91,86,73,29.98,29.53,17,5,17,0.64
2013-3-13,53.1,44.1,37.6,37.5,31.1,24.2,85,62,33,29.78,29.68,18,5,18,0.00
2013-3-14,41.4,36.1,33.4,24.9,13.4,7.0,60,40,26,29.86,29.75,20,9,20,0.00
2013-3-15,46.9,38.8,28.8,30.4,20.2,10.2,57,47,38,29.89,29.59,20,6,20,0.00
2013-3-16,43.7,36.9,34.2,30.7,26.6,21.1,84,67,48,29.81,29.67,13,2,13,0.03
2013-3-17,39.4,35.7,31.1,29.6,19.8,14.9,83,54,38,30.20,29.80,15,4,15,0.00
2013-3-18,38.3,31.8,27.1,30.7,20.3,9.4,91,64,47,30.31,29.90,13,5,13,0.08
2013-3-19,46.2,38.2,33.1,39.2,33.2,18.8,92,83,47,29.90,29.58,20,5,20,0.78
2013-3-20,47.7,39.1,30.2,23.8,20.0,16.9,66,47,31,29.78,29.66,22,6,22,0.00
2013-3-21,42.3,35.6,30.4,27.5,18.7,11.4,79,52,34,29.72,29.51,14,6,14,0.00
2013-3-22,43.5,35.1,26.6,22.0,17.7,12.0,66,50,36,29.78,29.63,16,6,16,0.00
2013-3-23,48.2,39.3,31.3,23.0,20.1,17.1,64,47,32,29.82,29.72,21,8,21,0.00
2013-3-24,49.5,40.4,29.5,26.7,21.5,17.5,61,47,34,29.85,29.58,14,4,14,0.00
2013-3-25,39.7,37.7,34.3,34.6,30.2,24.9,90,75,57,29.59,29.35,19,4,19,0.14
2013-3-26,50.2,42.8,-24.9,33.0,26.9,-40.1,87,54,43,30.59,29.49,9,3,9,0.15
2013-3-27,54.1,43.7,32.4,30.9,27.3,22.2,69,54,30,29.89,29.76,18,5,18,0.00
2013-3-28,52.3,44.3,35.6,33.9,29.6,27.5,74,57,42,30.01,29.87,16,6,16,0.00
2013-3-29,57.6,45.8,33.8,31.8,28.4,26.0,76,52,32,30.06,29.96,15,4,15,0.00
2013-3-30,61.0,46.8,32.7,33.5,26.0,18.2,77,49,22,30.08,29.96,12,3,12,0.00
2013-3-31,57.7,45.6,33.8,42.6,33.3,24.1,90,64,38,30.03,29.57,14,4,14,0.11
2013-4-1,64.8,49.5,37.9,46.8,37.2,12.3,90,66,33,29.81,29.51,22,7,22,0.00
2013-4-2,45.5,39.0,31.6,18.5,14.2,10.4,51,37,26,29.99,29.81,21,7,21,0.00
2013-4-3,48.0,39.0,29.7,17.5,13.3,8.4,52,35,25,30.21,29.99,18,7,18,0.00
2013-4-4,56.1,43.2,29.7,28.9,20.2,12.3,56,40,27,30.31,30.00,14,4,14,0.00
2013-4-5,64.6,50.1,41.0,31.9,25.2,19.1,63,41,20,30.00,29.60,21,5,21,0.00
2013-4-6,54.5,44.6,34.9,26.3,17.6,10.9,57,35,19,30.23,29.90,21,6,21,0.00
2013-4-7,66.0,51.1,38.3,43.2,33.3,25.6,69,53,28,30.23,29.86,17,6,17,0.00
2013-4-8,75.7,59.9,45.5,46.6,43.1,39.2,80,57,29,29.97,29.81,14,3,14,0.00
2013-4-9,83.7,68.1,51.4,53.4,44.3,35.8,79,48,20,29.89,29.75,20,4,20,0.00
2013-4-10,64.2,59.7,56.1,54.0,49.7,43.3,89,71,49,29.80,29.66,17,2,17,0.33
2013-4-11,61.7,56.1,48.0,56.9,49.7,40.3,91,80,63,29.93,29.62,16,4,16,0.03
2013-4-12,49.1,43.8,41.5,42.2,40.3,38.1,92,88,67,29.90,29.52,16,6,16,0.53
2013-4-13,59.2,49.0,39.4,45.7,39.7,35.2,92,73,44,29.88,29.59,14,3,14,0.03
2013-4-14,59.5,52.6,43.9,41.8,34.7,28.7,83,53,32,30.10,29.82,16,4,16,0.00
2013-4-15,56.1,50.3,44.6,41.8,32.7,26.9,80,52,39,30.29,29.99,13,4,13,0.00
2013-4-16,70.3,58.9,46.9,55.7,48.9,41.3,83,70,54,30.26,29.92,16,4,16,0.00
2013-4-17,72.0,62.7,53.2,55.2,43.7,30.7,85,54,22,30.19,29.81,10,4,10,0.00
2013-4-18,57.0,52.6,48.6,50.3,44.5,40.8,89,74,60,30.17,29.90,13,4,13,0.00
2013-4-19,79.2,66.9,53.4,64.5,59.2,50.3,91,77,57,29.91,29.35,23,6,23,0.14
2013-4-20,63.1,54.4,47.7,58.0,36.9,23.7,86,55,31,30.16,29.33,20,7,20,0.08
2013-4-21,56.1,46.8,37.0,30.7,24.6,19.6,60,42,29,30.55,29.99,15,5,15,0.00
2013-4-22,54.9,46.9,36.3,36.7,32.3,29.5,80,58,42,30.54,30.15,18,5,18,0.00
2013-4-23,52.7,46.0,41.2,41.7,36.4,31.0,81,69,58,30.29,29.74,12,4,12,0.00
2013-4-24,64.4,52.5,41.2,53.6,44.8,35.5,80,75,68,29.84,29.50,11,2,11,0.19
2013-4-25,66.4,57.2,47.5,53.0,33.3,25.9,79,43,23,30.17,29.48,18,5,18,0.00
2013-4-26,66.4,55.9,42.4,37.3,31.8,-1.2,70,43,10,30.30,29.83,14,3,14,0.06
2013-4-27,69.8,58.3,43.0,35.3,32.0,28.9,64,39,23,30.23,29.78,12,3,12,0.00
2013-4-28,71.1,58.9,43.5,43.4,36.4,30.9,69,45,27,29.95,29.65,13,3,13,0.00
2013-4-29,57.7,54.6,52.5,50.1,47.1,38.5,83,76,50,30.13,29.51,10,2,10,0.09
2013-4-30,63.9,56.3,46.9,48.8,40.8,25.4,85,60,24,30.28,29.57,14,3,14,0.00
2013-5-1,52.3,50.5,46.9,42.2,38.0,36.9,75,62,59,30.01,29.72,15,3,15,0.00
2013-5-2,70.0,59.8,46.2,53.6,44.1,6.7,82,60,10,30.34,29.76,8,2,8,0.00
2013-5-3,70.0,70.0,70.0,53.6,42.5,10.8,56,44,10,30.30,29.71,9,4,9,0.00
2013-5-4,70.0,66.2,30.2,48.5,8.0,-20.0,47,10,10,30.23,29.62,12,3,12,0.00
2013-5-5,65.3,45.8,30.2,45.6,16.6,-20.0,78,39,10,30.22,30.15,12,3,12,0.00
2013-5-6,67.1,56.1,46.4,53.6,47.1,40.6,82,72,59,30.18,30.07,9,2,9,0.00
2013-5-7,73.2,60.4,49.3,59.4,52.6,44.3,86,76,60,30.09,30.00,12,3,12,0.00
2013-5-8,64.8,61.0,55.2,62.4,58.0,52.2,92,90,81,30.01,29.88,10,2,10,1.52
2013-5-9,67.5,60.6,54.3,63.1,56.2,51.4,93,86,73,29.92,29.80,7,1,7,0.50
2013-5-10,79.7,69.6,64.0,60.6,58.4,55.5,78,68,47,29.87,29.81,9,2,9,0.00
2013-5-11,72.0,65.1,63.0,65.5,61.8,56.8,93,89,67,29.82,29.60,16,2,16,0.53
2013-5-12,68.4,61.6,52.9,64.4,46.2,29.4,92,62,29,29.86,29.58,15,4,15,0.00
2013-5-13,58.3,52.0,45.9,35.6,32.2,27.3,63,47,33,30.03,29.86,17,4,17,0.00
2013-5-14,62.4,53.1,43.2,36.8,32.7,25.4,70,48,26,30.07,29.94,12,3,12,0.00
2013-5-15,73.6,60.5,47.5,57.4,47.7,34.5,73,63,50,30.00,29.59,11,2,11,0.00
2013-5-16,79.2,69.0,60.1,61.0,57.8,53.1,83,68,44,29.72,29.62,5,0,5,0.00
2013-5-17,71.4,69.1,61.7,58.2,55.2,42.0,68,62,35,30.12,29.72,5,0,5,0.00
2013-5-18,63.3,60.1,56.1,54.8,51.2,46.4,79,73,60,30.24,30.12,6,1,6,0.00
2013-5-19,59.9,58.2,56.8,56.5,54.8,52.3,92,89,76,30.23,30.09,9,2,9,0.36
2013-5-20,78.6,67.7,58.6,67.4,62.1,56.2,92,83,68,30.10,29.87,8,1,8,0.03
2013-5-21,86.2,75.3,64.2,72.8,66.7,60.1,89,76,60,29.89,29.75,10,2,10,0.00
2013-5-22,79.7,72.7,65.1,71.5,66.5,60.0,87,81,74,29.85,29.73,7,2,7,0.00
2013-5-23,81.7,74.3,69.6,73.0,68.7,66.9,91,83,65,29.82,29.67,14,4,14,0.33
2013-5-24,70.0,55.9,49.3,67.2,51.9,43.8,92,87,80,29.89,29.60,14,5,14,0.36
2013-5-25,59.2,53.3,48.6,47.4,44.3,39.6,86,72,56,29.95,29.83,23,7,23,0.33
2013-5-26,68.5,59.5,51.1,43.6,40.7,37.3,68,51,34,30.14,29.91,17,6,17,0.00
2013-5-27,73.9,63.8,48.0,48.2,42.9,38.7,73,49,32,30.18,29.96,9,2,9,0.00
2013-5-28,66.0,60.7,55.0,58.2,53.4,45.0,89,78,54,30.16,30.05,5,0,5,0.44
2013-5-29,84.7,71.1,61.3,71.3,63.7,58.1,90,79,55,30.06,29.91,8,1,8,0.00
2013-5-30,91.0,80.5,71.6,70.0,67.1,62.3,82,66,44,30.06,29.97,8,2,8,0.00
2013-5-31,95.0,84.9,74.7,76.1,68.5,63.5,81,60,38,30.05,29.90,9,2,9,0.00
2013-6-1,92.8,83.9,73.6,74.2,69.9,66.3,84,64,47,29.95,29.80,10,2,10,0.00
2013-6-2,90.9,84.1,77.9,73.9,70.8,66.9,77,65,50,29.83,29.69,12,4,12,0.00
2013-6-3,84.2,74.4,69.6,99.9,69.7,55.1,92,84,57,31.67,29.70,9,2,9,0.28
2013-6-4,75.0,68.8,60.8,55.6,49.6,47.5,64,51,40,30.05,29.71,15,4,15,0.00
2013-6-5,73.8,65.7,55.8,56.2,49.8,45.1,80,58,40,30.14,30.03,12,2,12,0.00
2013-6-6,70.9,65.3,60.6,60.8,58.0,54.5,88,78,59,30.07,29.93,13,3,13,0.74
2013-6-7,65.3,63.2,61.7,63.2,60.8,59.3,93,92,88,29.93,29.52,10,4,10,3.63
2013-6-8,75.0,67.6,59.4,67.6,62.8,57.3,93,85,71,29.97,29.49,12,3,12,0.03
2013-6-9,80.4,71.9,62.4,64.4,61.1,58.0,87,71,52,30.10,29.97,9,2,9,0.00
2013-6-10,70.7,67.9,66.4,66.3,65.0,63.5,93,90,82,30.05,29.73,9,3,9,1.08
2013-6-11,79.9,73.8,68.4,71.1,67.0,62.1,93,80,63,29.73,29.54,14,3,14,0.06
2013-6-12,76.5,71.9,67.1,63.2,59.5,56.4,75,66,53,29.77,29.64,15,2,15,0.00
2013-6-13,66.7,65.0,59.4,64.0,60.7,57.0,92,86,73,29.76,29.36,12,3,12,0.86
2013-6-14,71.4,62.2,55.9,62.5,57.4,53.9,93,85,64,29.82,29.43,14,4,14,0.25
2013-6-15,78.3,70.2,60.8,59.1,57.2,55.8,85,65,47,29.92,29.82,5,1,5,1.96
2013-6-16,81.9,72.4,62.4,65.9,60.8,56.3,82,68,47,29.92,29.70,12,2,12,0.00
2013-6-17,85.1,76.3,68.5,70.0,65.6,62.7,85,71,55,29.84,29.76,9,2,9,0.00
2013-6-18,83.7,72.9,66.6,70.3,65.7,62.8,88,79,62,29.82,29.73,7,2,7,0.14
2013-6-19,70.3,68.2,62.8,63.1,56.2,54.3,88,66,61,30.10,29.81,9,3,9,0.63
2013-6-20,80.2,71.1,60.1,62.6,57.0,52.9,82,62,47,30.21,30.10,8,2,8,0.00
2013-6-21,82.2,73.7,62.2,61.4,56.3,50.4,74,55,46,30.24,30.16,9,2,9,0.00
2013-6-22,84.0,73.8,62.6,65.6,60.0,54.5,77,63,49,30.21,30.05,8,2,8,0.00
2013-6-23,88.0,77.0,68.2,74.0,67.3,61.0,87,73,54,30.13,29.98,0,0,0,0.00
2013-6-24,90.5,80.1,73.8,75.4,70.0,63.1,89,73,49,30.00,29.88,0,0,0,0.00
2013-6-25,80.8,76.6,71.1,74.6,68.9,65.6,86,77,69,29.93,29.74,0,0,0,0.00
2013-6-26,84.6,78.9,74.3,71.6,69.2,66.0,86,73,61,29.78,29.70,0,0,0,0.00
2013-6-27,85.5,78.9,74.1,74.1,71.5,69.3,91,78,62,29.75,29.47,0,0,0,0.00
2013-6-28,85.5,77.5,73.4,72.8,70.9,66.1,92,81,62,29.49,29.39,0,0,0,0.00
2013-6-29,84.9,78.5,71.2,72.5,68.0,65.2,85,71,53,29.62,29.41,0,0,0,0.00
2013-6-30,85.5,77.8,73.2,75.3,72.0,66.3,88,83,69,29.83,29.53,0,0,0,0.00
2013-7-1,78.3,75.9,73.6,74.5,72.6,70.6,93,90,84,29.98,29.82,0,0,0,0.00
2013-7-2,83.8,77.7,74.5,75.1,72.9,71.4,92,85,72,30.12,29.97,0,0,0,0.00
2013-7-3,84.6,77.4,73.8,76.1,72.2,45.6,88,84,74,30.19,29.95,22,0,22,0.00
2013-7-4,87.3,82.7,76.6,76.6,74.3,73.0,89,77,66,30.19,30.11,0,0,0,0.00
2013-7-5,87.1,86.6,82.0,74.4,74.2,51.9,73,67,66,30.11,29.99,29,0,4,0.00
2013-7-6,90.5,84.1,77.4,76.2,73.3,71.8,84,71,58,30.08,29.96,9,2,9,0.00
2013-7-7,91.4,84.6,78.1,76.9,73.4,69.4,84,70,57,30.00,29.86,14,3,14,0.00
2013-7-8,87.6,80.6,73.4,73.0,69.4,66.2,83,69,56,29.99,29.90,14,3,14,0.00
2013-7-9,88.0,78.3,73.8,72.7,69.7,66.8,82,75,59,30.01,29.91,10,2,10,0.00
2013-7-10,86.7,81.2,75.9,76.0,72.7,70.7,85,76,62,29.95,29.73,12,2,12,0.00
2013-7-11,83.7,79.9,76.1,74.0,70.7,66.8,80,74,61,29.85,29.74,7,2,7,0.03
2013-7-12,79.7,75.3,71.2,70.5,67.4,63.9,90,77,67,30.03,29.85,12,4,12,0.28
2013-7-13,79.3,75.1,71.1,76.5,72.1,67.3,93,90,88,30.21,30.02,8,1,8,0.17
2013-7-14,88.0,81.7,76.1,77.1,73.9,70.7,91,78,62,30.28,30.17,9,1,9,0.00
2013-7-15,92.5,84.3,76.6,77.4,73.4,70.7,83,71,58,30.19,30.06,15,2,15,0.00
2013-7-16,93.0,84.6,77.7,73.4,70.7,67.8,77,64,48,30.14,30.06,12,4,12,0.00
2013-7-17,94.1,85.4,77.4,75.0,72.1,70.3,82,66,50,30.13,29.99,8,2,8,0.00
2013-7-18,95.7,87.4,79.5,77.0,73.5,70.3,78,64,47,30.00,29.89,10,2,10,0.00
2013-7-19,96.3,88.8,81.9,80.8,76.5,74.4,82,68,52,29.90,29.72,15,3,15,0.00
2013-7-20,91.8,84.4,78.1,77.6,73.7,70.7,86,71,55,29.77,29.66,13,3,13,0.06
2013-7-21,88.5,82.2,76.5,74.1,69.0,65.4,86,65,50,29.89,29.76,8,2,8,0.00
2013-7-22,87.3,80.2,76.5,75.1,72.5,68.7,88,78,63,29.90,29.73,9,2,9,0.11
2013-7-23,86.2,79.5,73.9,76.7,73.7,70.9,93,83,67,29.73,29.48,10,2,10,0.25
2013-7-24,81.9,76.9,70.9,71.2,66.7,57.1,85,71,56,29.86,29.55,14,3,14,0.00
2013-7-25,70.9,69.3,67.5,60.9,57.1,52.2,74,65,58,29.99,29.86,13,4,13,0.00
2013-7-26,82.6,74.8,69.3,65.6,62.2,59.6,76,66,50,29.98,29.93,9,3,9,0.00
2013-7-27,84.7,75.9,66.9,68.7,64.5,61.6,85,69,48,29.99,29.88,13,3,13,0.00
2013-7-28,82.4,76.2,70.3,71.3,69.7,65.1,92,81,66,29.92,29.84,12,3,12,0.64
2013-7-29,82.9,75.7,69.8,73.7,66.4,57.8,93,75,46,30.05,29.88,12,2,12,0.12
2013-7-30,82.6,73.8,64.4,62.7,60.4,57.3,80,64,48,30.11,30.04,12,2,12,0.00
2013-7-31,83.3,74.5,64.4,64.6,61.6,58.1,81,65,48,30.10,29.97,10,2,10,0.00
2013-8-1,74.3,72.4,69.6,69.8,66.4,64.3,93,82,71,29.98,29.77,5,0,5,0.58
2013-8-2,83.7,75.4,68.0,70.6,66.6,62.0,93,76,51,29.86,29.73,12,2,12,0.00
2013-8-3,77.9,73.3,70.5,68.7,65.4,61.6,84,76,69,29.85,29.77,10,2,10,0.00
2013-8-4,81.0,73.5,65.5,64.9,61.0,53.7,84,66,48,29.91,29.80,14,4,14,0.00
2013-8-5,77.5,67.2,63.7,57.7,54.3,51.8,71,64,41,29.99,29.91,12,1,12,0.00
2013-8-6,74.7,70.5,66.4,64.0,60.3,58.0,75,70,62,30.06,29.98,8,2,8,0.00
2013-8-7,76.5,76.5,76.5,67.9,67.9,67.9,75,75,75,30.00,30.00,5,4,5,0.00
2013-8-8,78.3,74.9,73.8,74.4,72.2,71.3,93,91,87,29.96,29.93,10,2,10,1.33
2013-8-9,85.5,78.3,73.8,76.9,73.7,69.6,93,86,68,29.95,29.73,17,3,17,0.06
2013-8-10,81.9,76.4,70.2,72.6,67.9,62.8,89,76,60,30.00,29.80,10,2,10,0.03
2013-8-11,81.5,73.2,64.2,66.0,61.8,58.1,84,68,49,30.08,29.96,8,2,8,0.25
2013-8-12,79.3,76.2,73.4,69.5,68.8,67.8,84,78,69,29.88,29.87,4,1,4,0.17
2013-8-13,75.7,72.4,70.3,71.4,68.7,65.8,93,88,79,29.88,29.63,10,1,10,0.75
2013-8-14,75.9,69.7,63.9,66.0,58.6,53.6,83,69,53,30.00,29.70,14,4,14,0.00
2013-8-15,77.2,67.6,56.5,58.5,55.1,51.1,83,66,46,30.11,30.00,10,2,10,0.00
2013-8-16,79.0,69.3,58.5,60.8,57.3,53.8,86,67,46,30.16,30.07,7,0,7,0.00
2013-8-17,80.4,70.5,59.5,63.5,58.7,54.7,86,68,47,30.23,30.16,0,0,0,0.00
2013-8-18,76.1,69.2,65.7,64.2,60.6,57.2,82,75,56,30.22,30.08,0,0,0,0.00
2013-8-19,76.8,70.9,64.8,66.2,63.2,57.6,87,77,63,30.09,29.99,0,0,0,0.00
2013-8-20,84.4,75.3,65.8,69.3,65.8,61.9,88,74,56,30.07,30.00,0,0,0,0.00
2013-8-21,88.0,77.6,67.8,68.4,65.4,62.2,86,68,45,30.13,30.00,0,0,0,0.00
2013-8-22,76.5,74.0,72.1,73.6,70.1,66.7,93,88,74,30.02,29.82,0,0,0,0.00
2013-8-23,80.8,74.7,69.1,71.4,65.3,58.8,93,74,54,29.93,29.82,34,0,34,0.00
2013-8-24,78.3,68.1,64.9,60.1,58.4,53.4,79,72,51,29.92,29.92,0,0,0,0.00
2013-8-25,82.2,71.0,59.2,61.4,57.6,16.9,86,65,10,30.33,29.92,13,2,13,0.00
2013-8-26,81.9,74.3,66.9,69.2,62.9,57.2,81,68,58,30.20,29.86,12,2,12,0.00
2013-8-27,84.7,78.0,72.0,69.8,68.3,66.1,86,73,55,29.86,29.76,12,3,12,0.00
2013-8-28,79.5,75.3,72.1,72.5,70.1,67.2,89,84,78,29.84,29.78,2,0,2,0.03
2013-8-29,76.1,73.4,72.7,71.9,69.5,65.9,89,88,76,29.98,29.79,8,0,8,0.00
2013-8-30,84.4,76.5,70.7,71.5,68.5,65.3,85,77,62,29.99,29.80,12,3,12,0.00
2013-8-31,86.9,79.3,73.6,74.8,71.3,68.4,85,77,64,29.82,29.72,14,4,14,0.00
2013-9-1,84.4,78.6,75.0,74.4,72.1,70.5,87,81,70,29.80,29.74,10,3,10,0.00
2013-9-2,81.9,77.0,73.8,74.4,71.9,70.0,89,85,75,29.72,29.65,8,1,8,0.08
2013-9-3,82.4,75.6,69.1,70.9,66.7,59.9,90,75,54,29.85,29.66,10,2,10,0.00
2013-9-4,81.5,72.5,63.5,62.2,60.1,58.1,83,66,50,29.97,29.85,11,2,11,0.00
2013-9-5,76.6,67.0,62.1,63.1,57.4,46.5,81,71,50,30.11,29.89,7,2,7,0.00
2013-9-6,74.1,64.1,55.0,52.3,48.2,44.2,71,57,35,30.21,30.10,8,2,8,0.00
2013-9-7,79.0,66.5,52.9,56.3,51.5,47.5,83,61,38,30.10,29.85,9,2,9,0.00
2013-9-8,81.3,72.7,64.9,65.5,57.9,46.0,78,61,44,30.03,29.77,17,4,17,0.00
2013-9-9,75.0,66.1,55.0,60.1,52.6,46.5,74,62,50,30.19,30.03,13,3,13,0.00
2013-9-10,87.3,77.2,68.7,73.6,68.3,60.1,83,74,61,30.11,29.98,14,5,14,0.00
2013-9-11,94.1,83.1,75.2,77.1,73.1,63.6,87,73,52,30.06,29.90,18,3,18,0.00
2013-9-12,86.5,79.3,70.9,75.5,71.4,67.8,91,77,65,29.93,29.62,16,4,16,0.17
2013-9-13,72.0,68.4,61.3,68.1,60.1,50.6,91,76,59,29.81,29.58,15,4,15,0.08
2013-9-14,71.4,61.9,54.1,54.7,50.0,46.2,78,65,51,30.08,29.81,16,4,16,0.00
2013-9-15,73.4,60.7,49.3,53.6,48.9,44.0,84,67,40,30.17,30.03,10,2,10,0.00
2013-9-16,73.2,63.7,57.4,59.3,55.2,51.1,88,75,56,30.18,29.97,12,2,12,0.00
2013-9-17,72.5,59.5,51.1,51.0,43.8,39.5,78,57,40,30.39,30.18,14,4,14,0.00
2013-9-18,72.9,58.7,45.9,53.0,46.9,41.2,85,67,39,30.30,30.13,12,2,12,0.00
2013-9-19,76.8,62.9,50.5,55.1,51.2,45.9,85,68,41,30.14,30.00,12,2,12,0.00
2013-9-20,78.8,64.2,54.5,60.6,55.3,41.9,85,74,52,30.03,29.92,10,2,10,0.00
2013-9-21,80.8,67.9,55.0,66.7,59.5,50.6,89,76,48,29.95,29.59,20,4,20,0.08
2013-9-22,73.0,65.0,56.8,66.4,55.5,44.0,92,73,50,29.85,29.58,18,5,18,0.36
2013-9-23,70.0,57.6,50.7,50.1,45.3,37.6,75,64,48,29.99,29.85,14,4,14,0.00
2013-9-24,73.6,59.3,46.2,51.5,46.7,40.9,82,65,45,30.00,29.81,10,2,10,0.00
2013-9-25,73.4,61.2,49.8,53.4,49.0,43.9,81,66,46,29.90,29.81,7,1,7,0.00
2013-9-26,69.8,61.1,54.3,59.5,54.3,49.6,86,79,66,30.04,29.88,8,2,8,0.00
2013-9-27,65.7,63.7,58.6,54.6,53.6,52.5,80,70,66,30.22,30.15,7,1,7,0.00
2013-9-28,75.4,64.5,56.3,56.0,53.8,51.5,84,70,47,30.26,30.18,10,2,10,0.00
2013-9-29,72.9,62.2,53.6,59.5,54.2,49.2,87,76,59,30.19,30.02,10,2,10,0.00
2013-9-30,75.4,62.4,52.2,56.1,52.6,45.5,88,72,49,30.04,29.90,10,1,10,0.00
2013-10-1,82.4,66.5,54.9,61.6,56.2,50.4,86,71,47,29.95,29.83,9,1,9,0.00
2013-10-2,81.5,69.9,58.3,63.3,59.3,53.8,85,70,52,29.95,29.84,10,2,10,0.00
2013-10-3,79.3,70.0,59.0,61.0,58.6,54.3,86,69,46,30.06,29.95,7,1,7,0.00
2013-10-4,86.5,77.3,62.4,66.6,64.5,57.0,83,66,50,29.99,29.89,10,2,10,0.00
2013-10-5,79.3,71.4,66.7,67.0,64.6,62.7,88,79,64,30.04,29.94,7,2,7,0.00
2013-10-6,72.0,69.2,67.3,66.8,64.9,63.1,89,86,83,30.03,29.96,8,3,8,0.00
2013-10-7,81.1,68.3,58.5,71.6,64.5,55.8,92,88,70,29.96,29.67,31,3,31,0.19
2013-10-8,72.9,60.2,51.4,55.8,51.1,47.8,91,74,49,30.27,29.93,10,2,10,0.00
2013-10-9,62.1,58.1,53.8,51.6,48.9,46.2,77,72,65,30.29,30.23,6,1,6,0.00
2013-10-10,63.9,59.9,55.0,55.8,52.5,48.3,84,77,72,30.23,30.00,13,4,13,0.03
2013-10-11,68.0,64.5,59.9,61.0,57.9,54.4,86,79,72,30.02,29.94,15,5,15,0.03
2013-10-12,76.8,68.0,61.7,58.3,50.9,41.6,74,55,33,30.22,30.00,14,5,14,0.00
2013-10-13,70.5,63.5,59.2,55.4,52.9,50.0,76,69,58,30.33,30.21,13,4,13,0.00
2013-10-14,71.1,57.3,51.8,52.7,49.8,46.5,83,76,52,30.31,30.21,6,0,6,0.00
2013-10-15,77.2,61.4,52.2,58.2,50.6,44.0,84,70,41,30.21,30.06,8,2,8,0.00
2013-10-16,71.8,62.6,55.4,59.6,55.3,49.3,84,77,64,30.06,29.85,5,0,5,0.00
2013-10-17,75.4,67.4,63.0,63.2,61.0,58.2,88,80,64,29.85,29.62,9,2,9,0.00
2013-10-18,75.7,64.9,55.0,62.8,49.6,43.9,85,59,38,29.93,29.61,15,4,15,0.00
2013-10-19,65.7,56.9,48.0,54.3,46.8,41.5,84,70,51,29.93,29.69,10,2,10,0.00
2013-10-20,70.7,58.5,49.8,54.7,43.7,33.9,85,60,35,30.01,29.69,12,3,12,0.00
2013-10-21,73.9,57.2,45.0,45.7,41.3,37.8,78,58,32,30.10,29.93,16,3,16,0.00
2013-10-22,69.8,56.2,46.9,53.5,45.9,38.7,82,69,54,29.93,29.69,10,2,10,0.00
2013-10-23,54.9,48.5,44.6,42.4,38.3,32.2,77,68,54,29.75,29.58,10,2,10,0.00
2013-10-24,61.0,49.6,42.6,39.0,33.6,27.9,74,56,34,29.97,29.69,22,4,22,0.00
2013-10-25,60.6,48.6,38.7,38.5,32.3,28.0,68,54,36,30.18,29.96,15,3,15,0.00
2013-10-26,57.7,44.3,33.4,34.0,28.7,26.0,74,57,33,30.17,29.85,22,4,22,0.00
2013-10-27,60.6,51.3,40.8,34.7,29.7,27.2,60,44,33,30.06,29.81,12,4,12,0.00
2013-10-28,62.8,46.7,33.8,33.7,30.1,25.9,73,54,32,30.25,30.06,13,2,13,0.00
2013-10-29,59.5,47.2,40.3,33.9,31.2,28.6,68,55,37,30.36,30.25,7,2,7,0.00
2013-10-30,56.8,46.5,39.6,48.7,37.3,30.0,78,70,61,30.30,30.13,3,0,3,0.00
2013-10-31,65.8,58.9,50.4,59.3,53.0,44.4,88,81,72,30.16,29.73,17,3,17,0.00
2013-11-1,71.6,64.8,59.9,61.9,57.8,52.8,90,79,59,29.73,29.47,30,8,30,0.08
2013-11-10,51.3,49.9,47.8,30.5,28.7,26.1,45,44,43,29.98,29.90,23,10,23,0.08
2013-11-11,57.2,49.2,40.6,33.1,29.0,25.4,56,46,37,30.15,29.89,14,5,14,0.00
2013-11-12,51.1,40.0,30.6,35.7,25.0,15.4,76,55,45,30.24,29.86,22,7,22,0.00
2013-11-13,47.3,35.6,28.2,18.8,15.6,12.5,58,45,26,30.32,30.22,17,5,17,0.00
2013-11-14,46.2,37.8,30.6,21.2,17.6,10.6,57,45,30,30.22,30.13,13,2,13,0.00
2013-11-15,57.0,43.2,32.7,31.4,24.5,18.2,62,49,31,30.19,30.09,7,2,7,0.00
2013-11-16,66.6,47.6,40.5,47.5,37.7,26.4,82,69,49,30.26,30.17,8,1,8,0.00
2013-11-17,59.7,53.8,45.1,54.8,49.0,39.8,88,84,80,30.20,29.70,7,1,7,0.00
2013-11-18,72.0,60.0,50.4,58.9,42.4,27.9,91,57,29,29.70,29.50,23,7,23,0.11
2013-11-19,50.5,44.0,34.7,29.5,25.8,21.5,60,49,41,30.28,29.70,23,9,23,0.00
2013-11-20,47.7,36.6,30.2,23.5,18.3,8.1,68,50,21,30.55,30.28,11,3,11,0.00
2013-11-21,50.5,41.9,29.8,40.7,32.4,18.8,75,69,61,30.56,30.32,9,1,9,0.47
2013-11-22,55.8,50.8,47.1,50.9,45.2,39.8,91,81,75,30.32,29.83,12,3,12,0.03
2013-11-23,52.5,42.1,29.5,46.9,26.5,10.6,86,55,34,29.97,29.83,25,9,25,0.00
2013-11-24,32.4,25.4,21.7,11.2,4.8,2.1,48,41,31,30.33,29.95,29,10,29,0.00
2013-11-25,39.4,28.7,19.6,16.9,11.4,5.4,57,48,38,30.44,30.27,15,5,15,0.00
2013-11-26,49.1,35.8,31.3,45.3,25.4,14.8,91,67,49,30.27,29.68,11,3,11,0.69
2013-11-27,61.0,46.0,35.6,58.6,42.5,21.3,92,88,76,29.68,29.27,21,8,21,1.83
2013-11-28,37.8,31.4,26.8,22.1,15.7,10.4,66,53,35,30.42,29.67,20,7,20,0.00
2013-11-29,41.4,32.0,25.5,22.9,19.7,15.7,72,61,45,30.68,30.40,11,2,11,0.03
2013-11-30,37.9,31.2,22.3,28.7,20.6,12.5,73,65,50,30.70,30.31,8,2,8,0.00
2013-12-1,52.0,40.9,29.7,35.1,30.5,24.1,81,67,51,30.31,29.95,9,2,9,0.00
2013-12-2,52.3,41.6,34.2,36.0,31.2,27.8,84,67,50,29.95,29.80,6,0,6,0.00
2013-12-3,55.9,41.9,34.5,38.9,33.5,29.6,88,74,51,29.93,29.78,8,2,8,0.00
2013-12-4,34.7,34.7,34.7,29.8,29.8,29.8,82,82,82,29.97,29.93,2,0,2,0.00
2013-12-5,55.6,39.0,34.7,53.0,34.5,29.8,91,84,82,29.97,29.85,6,0,6,0.00
2013-12-6,60.4,47.5,37.4,57.9,44.7,35.0,92,90,86,30.08,29.77,16,3,16,0.83
2013-12-7,41.2,36.0,29.3,35.5,29.6,17.5,92,78,61,30.46,30.01,16,4,16,0.20
2013-12-8,32.9,28.7,26.8,27.0,20.2,14.9,87,71,59,30.53,30.30,10,3,10,0.00
2013-12-9,36.5,33.5,30.0,34.0,30.9,26.9,92,90,87,30.30,29.93,10,2,10,0.25
2013-12-10,33.6,30.6,24.3,31.1,28.0,19.8,92,90,83,30.07,29.80,12,3,12,0.03
2013-12-11,54.9,32.4,22.5,30.0,18.7,14.8,84,59,32,30.28,30.07,14,5,14,0.08
2013-12-12,53.4,27.5,19.0,21.8,11.9,5.9,71,54,26,30.30,30.11,17,5,17,0.00
2013-12-13,35.4,26.1,16.7,19.8,13.8,7.6,72,60,46,30.26,30.07,16,4,16,0.00
2013-12-14,28.4,25.0,20.3,25.8,19.6,16.8,90,80,70,30.42,29.69,13,5,13,0.00
2013-12-15,37.9,32.8,28.4,33.2,28.3,21.6,91,84,65,29.78,29.42,17,6,17,0.72
2013-12-16,37.6,28.2,19.4,23.1,14.8,9.5,74,58,39,30.16,29.76,16,5,16,0.00
2013-12-17,29.3,24.7,20.5,25.3,19.4,12.6,86,80,69,30.15,29.85,9,2,9,0.00
2013-12-18,38.3,27.7,20.3,25.7,19.9,16.0,84,73,55,30.11,29.84,18,4,18,0.14
2013-12-19,44.8,32.5,21.6,29.9,23.8,15.8,81,71,52,30.11,29.95,12,2,12,0.00
2013-12-20,50.2,39.9,30.7,36.0,31.2,26.2,84,72,55,30.03,29.89,8,1,8,0.00
2013-12-21,64.2,49.5,37.6,51.6,43.1,33.0,89,79,63,29.92,29.81,10,2,10,0.00
2013-12-22,68.9,63.3,51.6,61.2,56.5,46.6,88,79,71,29.86,29.71,24,7,24,0.00
2013-12-23,62.4,57.1,39.2,56.2,51.2,32.9,87,81,78,30.07,29.86,18,2,18,0.00
2013-12-24,43.2,35.1,25.9,33.1,24.5,12.3,78,66,51,30.28,30.01,22,7,22,0.00
2013-12-25,32.9,25.5,18.9,15.9,11.3,8.2,65,55,45,30.47,30.28,20,4,20,0.00
2013-12-26,37.9,30.5,26.4,27.2,21.3,14.4,73,68,59,30.37,30.10,14,3,14,0.00
2013-12-27,43.2,31.8,25.5,23.3,20.7,17.7,76,64,44,30.30,30.19,12,3,12,0.00
2013-12-28,57.9,38.9,24.6,31.3,25.2,18.9,79,60,34,30.23,29.99,18,3,18,0.00
2013-12-29,42.4,39.6,36.1,38.8,33.5,26.0,91,79,58,30.01,29.33,13,3,13,1.30
2013-12-30,44.1,35.2,23.5,37.7,28.0,13.5,88,76,62,30.12,29.61,15,5,15,0.00
2013-12-31,31.8,26.6,21.2,23.6,15.2,9.8,73,62,50,30.24,29.99,15,5,15,0.00
2014-1-1,33.6,28.3,21.2,23.0,17.1,9.7,74,63,53,30.35,30.16,8,2,8,0.00
2014-1-2,32.4,26.8,16.9,23.8,20.5,12.3,84,77,67,30.16,29.59,16,6,16,0.00